Terminal Aerodrome Forecast
Issued by NWS

Current Version | Previous Version | Graphics & Text | Print | Product List | Glossary On
Versions: 1 2 3 4 5 6 7 8 9 10 11 12 13 14 15 16 17 18 19 20
000
FTUS41 KPBZ 160500
TAFMGW
TAF
KMGW 160539Z 1606/1706 00000KT P6SM OVC100
     FM161100 33002KT P6SM OVC015
     FM161700 35004KT P6SM BKN050
     FM162100 34006KT P6SM SKC=

USA.gov is the U.S. government's official web portal to all federal, state and local government web resources and services.